Casper, WY

7:23 AM MST on December 07, 2019 (GMT -0700)
Natrona County International

Weather History for KCPR - October, 2019

Change the Weather History Date:

Friday, October 11, 2019

  Actual Average Record
Temperature  
Mean Temperature 33 °F 47 °F  
Max Temperature 49 °F 61 °F 84 °F (1996)
Min Temperature 16 °F 32 °F 16 °F (2009)
Degree Days  
Heating Degree Days 32 18  
Month to date heating degree days 246 182  
Since 1 July heating degree days 417 467  
Cooling Degree Days 0 0  
Month to date cooling degree days 0 0  
Year to date cooling degree days 441 422  
Moisture  
Dew Point 14 °F    
Average Humidity 52    
Maximum Humidity 80    
Minimum Humidity 23    
Precipitation  
Precipitation 0.00 in 0.03 in 0.45 in (1943)
Month to date precipitation 0.42 0.42  
Year to date precipitation 11.12 10.58  
Snow  
Snow 0.00 in 0.20 in - ()
Month to date snowfall 2.4 2.2  
Since 1 July snowfall 2.4 4.0  
Since 1 September snowfall 2.4 4.0  
Snow Depth T in    
Sea Level Pressure  
Sea Level Pressure 30.31 in    
Wind  
Wind Speed 15 mph (WSW)    
Max Wind Speed 25 mph    
Max Gust Speed 32 mph    
Visibility 10 miles    
Events      
T = Trace of Precipitation, MM = Missing Value Source: NWS Daily Summary

Daily Weather History Graph

Daily Weather History Graph

Search for Another Location

Airport or City:

Astronomy

Oct. 11, 2019 Rise Set
Actual Time 7:14 AM MDT 6:30 PM MDT
Civil Twilight 6:45 AM MDT 6:58 PM MDT
Nautical Twilight 6:13 AM MDT 7:31 PM MDT
Astronomical Twilight 5:40 AM MDT 8:04 PM MDT
Moon 6:05 PM MDT (10/11) 4:52 AM MDT (10/11)
Length of Visible Light 12h 12m
Length of Day
11h 15m
Waxing Gibbous, 96% of the Moon is Illuminated
Oct 11
Waxing Gibbous
Oct 13
Full
Oct 21
Last Quarter
Oct 27
New
Nov 4
First Quarter

Hourly Weather History & Observations

Time (MDT) Temp. Windchill Dew Point Humidity Pressure Visibility Wind Dir Wind Speed Gust Speed Precip Events Conditions
12:53 AM 17.1 °F - 10.0 °F 74% 30.42 in 10.0 mi North - - N/A   Clear
1:53 AM 16.0 °F 3.6 °F 10.0 °F 77% 30.42 in 10.0 mi WSW 10.4 mph - N/A   Clear
2:53 AM 17.1 °F 3.0 °F 9.0 °F 71% 30.41 in 10.0 mi WSW 13.8 mph - N/A   Clear
3:53 AM 18.0 °F 3.1 °F 10.0 °F 71% 30.40 in 10.0 mi SW 16.1 mph - N/A   Clear
4:53 AM 17.1 °F 3.0 °F 9.0 °F 71% 30.41 in 10.0 mi SW 13.8 mph - N/A   Clear
5:53 AM 17.1 °F 3.6 °F 8.1 °F 68% 30.43 in 10.0 mi SW 12.7 mph - N/A   Clear
6:53 AM 16.0 °F 3.6 °F 9.0 °F 74% 30.43 in 10.0 mi SW 10.4 mph - N/A   Clear
7:53 AM 19.0 °F 4.5 °F 10.0 °F 68% 30.43 in 10.0 mi SW 16.1 mph - N/A   Clear
8:53 AM 23.0 °F 9.6 °F 12.0 °F 63% 30.42 in 10.0 mi SW 16.1 mph - N/A   Clear
9:53 AM 26.1 °F 12.7 °F 15.1 °F 63% 30.43 in 10.0 mi SW 18.4 mph - N/A   Clear
10:53 AM 32.0 °F 20.8 °F 17.1 °F 54% 30.40 in 10.0 mi WSW 17.3 mph 29.9 mph N/A   Clear
11:53 AM 36.0 °F 25.0 °F 16.0 °F 44% 30.37 in 10.0 mi West 20.7 mph - N/A   Clear
12:53 PM 39.9 °F 29.7 °F 17.1 °F 40% 30.32 in 10.0 mi West 23.0 mph 31.1 mph N/A   Clear
1:53 PM 43.0 °F 34.2 °F 12.9 °F 30% 30.29 in 10.0 mi West 20.7 mph 27.6 mph N/A   Clear
2:53 PM 45.0 °F 36.2 °F 12.9 °F 27% 30.25 in 10.0 mi West 24.2 mph 31.1 mph N/A   Clear
3:53 PM 46.9 °F - 15.1 °F 28% 30.22 in 10.0 mi WNW 16.1 mph - N/A   Clear
4:53 PM 48.9 °F - 12.0 °F 23% 30.19 in 10.0 mi West 18.4 mph 27.6 mph N/A   Clear
5:53 PM 46.0 °F 39.6 °F 12.9 °F 26% 30.17 in 10.0 mi WSW 15.0 mph - N/A   Clear
6:53 PM 34.0 °F 28.0 °F 19.0 °F 54% 30.22 in 10.0 mi NNE 6.9 mph - N/A   Clear
7:53 PM 30.0 °F 23.2 °F 18.0 °F 61% 30.23 in 10.0 mi NNW 6.9 mph - N/A   Clear
8:53 PM 28.9 °F 20.4 °F 18.0 °F 64% 30.22 in 10.0 mi WSW 9.2 mph - N/A   Clear
9:53 PM 27.0 °F 18.7 °F 18.0 °F 69% 30.21 in 10.0 mi West 8.1 mph - N/A   Clear
10:53 PM 27.0 °F 18.0 °F 19.0 °F 72% 30.17 in 10.0 mi WSW 9.2 mph - N/A   Clear
11:53 PM 28.0 °F - 18.0 °F 66% 30.15 in 10.0 mi North - - N/A   Clear